Location: Zihuatanejo
(17.6330°N, 101.5500°W)
Time: 20:25:47
(UTC-05:00)

OTV 5 (USA 277) - Visible Passes

Search period start: 24 March 2019 00:00
Search period end: 03 April 2019 00:00
Orbit: 315 x 320 km, 54.5° (Epoch: 14 March)

Date Brightness Start Highest point End Pass type
(mag) Time Alt. Az. Time Alt. Az. Time Alt. Az.
27 Mar ? 06:41:46 11° S 06:44:00 29° ESE 06:46:24 10° ENE visible
28 Mar ? 06:57:11 21° WSW 06:58:38 45° NW 07:01:14 10° NNE visible
29 Mar ? 07:12:26 10° WNW 07:13:22 11° NW 07:14:18 10° NNW visible
30 Mar ? 05:56:24 10° NE 05:56:24 10° NE 05:56:27 10° NE visible
